Carlsbad, NM

4:34 AM MST on February 21, 2018 (GMT -0700)
Cavern City

Weather History for KCNM - August, 2014

Change the Weather History Date:

Monday, August 11, 2014

  Actual Average Record
Temperature  
Mean Temperature 80 °F -  
Max Temperature 90 °F 90 °F 103 °F (1993)
Min Temperature 72 °F 66 °F 59 °F (1975)
Cooling Degree Days 16    
Growing Degree Days 30 (Base 50)    
Moisture  
Dew Point 62 °F    
Average Humidity 64    
Maximum Humidity 79    
Minimum Humidity 35    
Precipitation  
Precipitation 0.00 in - - ()
Sea Level Pressure  
Sea Level Pressure 30.08 in    
Wind  
Wind Speed 11 mph (North)    
Max Wind Speed 28 mph    
Max Gust Speed 40 mph    
Visibility 9 miles    
Events Rain , Thunderstorm    
Averages and records for this station are not official NWS values.
T = Trace of Precipitation, MM = Missing Value Source: NWS Daily Summary

Daily Weather History Graph

Daily Weather History Graph

Search for Another Location

Airport or City:

Trip Planner

Search our weather history database for the weather conditions in past years. The results will help you decide how hot, cold, wet, or windy it might be!

Date:

Astronomy

Aug. 11, 2014 Rise Set
Actual Time 6:18 AM MDT 7:45 PM MDT
Civil Twilight 5:52 AM MDT 8:11 PM MDT
Nautical Twilight 5:21 AM MDT 8:42 PM MDT
Astronomical Twilight 4:48 AM MDT 9:15 PM MDT
Moon 8:24 PM MDT (8/11) 7:19 AM MDT (8/11)
Length of Visible Light 14h 19m
Length of Day
13h 26m
Full, 98% of the Moon is Illuminated
Aug 11
Full
Aug 17
Last Quarter
Aug 25
New
Sep 2
First Quarter
Sep 8
Full

Hourly Weather History & Observations

Time (MDT) Temp. Heat Index Dew Point Humidity Pressure Visibility Wind Dir Wind Speed Gust Speed Precip Events Conditions
12:53 AM 75.0 °F - 59.0 °F 57% 29.99 in 10.0 mi NNW 6.9 mph - N/A   Clear
1:53 AM 75.9 °F - 57.9 °F 54% 30.00 in 10.0 mi NNW 9.2 mph - N/A   Clear
2:53 AM 72.0 °F - 62.1 °F 71% 30.02 in 10.0 mi NNW 17.3 mph - N/A   Overcast
3:53 AM 72.0 °F - 61.0 °F 68% 30.03 in 10.0 mi North 17.3 mph - N/A   Mostly Cloudy
4:53 AM 73.0 °F - 62.1 °F 68% 30.03 in 10.0 mi North 13.8 mph - N/A   Overcast
5:53 AM 72.0 °F - 60.1 °F 66% 30.05 in 10.0 mi North 11.5 mph - N/A   Mostly Cloudy
6:53 AM 72.0 °F - 60.1 °F 66% 30.06 in 10.0 mi NW 8.1 mph - N/A   Overcast
7:53 AM 72.0 °F - 61.0 °F 68% 30.08 in 10.0 mi NW 10.4 mph - N/A   Overcast
8:53 AM 73.9 °F - 60.1 °F 62% 30.09 in 10.0 mi North 11.5 mph - 0.00 in   Partly Cloudy
9:53 AM 75.9 °F - 60.1 °F 58% 30.09 in 10.0 mi North 5.8 mph - N/A   Clear
10:53 AM 79.0 °F - 61.0 °F 54% 30.10 in 10.0 mi NNW 9.2 mph - N/A   Clear
11:53 AM 79.0 °F - 59.0 °F 50% 30.10 in 10.0 mi North - - N/A   Clear
12:53 PM 82.0 °F 82.4 °F 60.1 °F 47% 30.07 in 10.0 mi North 11.5 mph - N/A   Clear
1:53 PM 86.0 °F 85.4 °F 59.0 °F 40% 30.03 in 10.0 mi North 6.9 mph 18.4 mph N/A   Clear
2:53 PM 88.0 °F 86.9 °F 57.9 °F 36% 30.01 in 10.0 mi Calm Calm - N/A   Clear
3:29 PM 89.1 °F 88.0 °F 57.9 °F 35% 30.16 in 10.0 mi WNW 8.1 mph - N/A Thunderstorm Clear
3:53 PM 79.0 °F - 62.1 °F 56% 30.02 in 2.0 mi East 27.6 mph 40.3 mph N/A Thunderstorm Haze
3:57 PM 79.0 °F - 62.1 °F 56% 30.18 in 3.0 mi East 26.5 mph 38.0 mph N/A Thunderstorm Haze
4:14 PM 75.2 °F - 64.4 °F 69% 30.17 in 6.0 mi East 26.5 mph 32.2 mph N/A Rain , Thunderstorm Light Thunderstorms and Rain
4:23 PM 73.0 °F - 64.0 °F 73% 30.18 in 2.0 mi SE 20.7 mph - 0.00 in Rain , Thunderstorm Heavy Rain
4:27 PM 72.0 °F - 64.9 °F 78% 30.18 in 3.0 mi SE 17.3 mph - 0.00 in Rain , Thunderstorm Light Thunderstorms and Rain
4:46 PM 73.0 °F - 64.0 °F 73% 30.19 in 10.0 mi SSE 13.8 mph - 0.00 in Rain , Thunderstorm Light Rain
4:53 PM 73.0 °F - 64.9 °F 76% 30.05 in 10.0 mi SSE 10.4 mph - 0.00 in Rain , Thunderstorm Light Rain
5:02 PM 73.9 °F - 66.0 °F 76% 30.18 in 10.0 mi SSE 5.8 mph - 0.00 in Rain Light Rain
5:53 PM 75.0 °F - 66.9 °F 76% 30.02 in 10.0 mi WSW 3.5 mph - 0.00 in   Mostly Cloudy
6:53 PM 75.9 °F - 64.9 °F 69% 30.01 in 10.0 mi SE 3.5 mph - N/A   Scattered Clouds
7:53 PM 77.0 °F - 64.0 °F 64% 30.03 in 10.0 mi Calm Calm - N/A   Partly Cloudy
8:53 PM 75.0 °F - 68.0 °F 79% 30.04 in 10.0 mi South 5.8 mph - N/A   Clear
9:53 PM 75.0 °F - 66.9 °F 76% 30.05 in 10.0 mi Calm Calm - N/A   Clear
10:53 PM 73.9 °F - 66.0 °F 76% 30.06 in 10.0 mi West 4.6 mph - N/A   Clear
11:53 PM 75.0 °F - 66.9 °F 76% 30.08 in 10.0 mi Calm Calm - N/A   Partly Cloudy